Location: Bucquoy
(50.1391°N, 2.7097°E)
Time: 23:54:46
(UTC+00:00)

ATLAS CENTAUR R/B - Pass Details

Date: 06 May 2021
Orbit: 472 x 671 km, 64.6° (Epoch: 13 June)

Event Time Altitude Azimuth Distance (km) Brightness Sun altitude
Exits shadow 01:03:02 24° 113° (ESE) 1,027 2.6 -21.2°
Drops below altitude 10° 01:05:57 10° 62° (ENE) 1,697 4.5 -21.0°
Sets 01:08:25 0° 49° (NE) 2,614 5.8 -20.9°
